• In Czech Republic
  • List of Countries
  • For 7 days
  • Water Temperature
  • Satellite Maps
  • Weather Map
  • Weather Widgets
  • user-avatar
    Login

    Hourly Weather Wojcieszyn

    Today, 21 June, Thursday

    Time Temperature Precipitation Wind Pressure Humidity
    00:00 +19°C° 0 mm 2 mps 755 mmHg 86%
    01:00 +19°C° 0 mm 2 mps 755 mmHg 86%
    02:00 +18°C° 0 mm 2 mps 754 mmHg 88%
    03:00 +18°C° 0 mm 3 mps 754 mmHg 89%
    04:00 +17°C° 0 mm 3 mps 753 mmHg 91%
    05:00 +19°C° 0 mm 3 mps 753 mmHg 86%
    06:00 +20°C° 0 mm 3 mps 752 mmHg 81%
    07:00 +22°C° 0 mm 4 mps 752 mmHg 76%
    08:00 +23°C° 0.1 mm 5 mps 751 mmHg 71%
    09:00 +24°C° 0.1 mm 6 mps 751 mmHg 65%
    10:00 +26°C° 0.1 mm 7 mps 750 mmHg 59%
    11:00 +22°C° 0.7 mm 7 mps 750 mmHg 68%
    12:00 +20°C° 0.7 mm 7 mps 750 mmHg 77%
    13:00 +16°C° 0.7 mm 7 mps 750 mmHg 86%
    14:00 +15°C° 0.6 mm 6 mps 750 mmHg 87%
    15:00 +14°C° 0.6 mm 5 mps 750 mmHg 88%
    16:00 +13°C° 0.6 mm 4 mps 751 mmHg 90%
    17:00 +13°C° 0.6 mm 5 mps 751 mmHg 88%
    18:00 +13°C° 0.6 mm 6 mps 751 mmHg 86%
    19:00 +13°C° 0.6 mm 6 mps 751 mmHg 84%
    20:00 +11°C° 0.2 mm 6 mps 752 mmHg 84%
    21:00 +10°C° 0.2 mm 6 mps 752 mmHg 84%
    22:00 +9°C° 0.2 mm 6 mps 752 mmHg 84%
    23:00 +9°C° 0 mm 7 mps 752 mmHg 83%

    Tomorrow, 22 June, Friday

    Time Temperature Precipitation Wind Pressure Humidity
    00:00 +9°C° 0 mm 7 mps 753 mmHg 82%
    01:00 +8°C° 0 mm 7 mps 753 mmHg 80%
    02:00 +8°C° 0 mm 7 mps 753 mmHg 80%
    03:00 +8°C° 0 mm 7 mps 753 mmHg 80%
    04:00 +8°C° 0 mm 7 mps 753 mmHg 80%
    05:00 +9°C° 0 mm 7 mps 753 mmHg 79%
    06:00 +9°C° 0 mm 7 mps 753 mmHg 78%
    07:00 +10°C° 0 mm 7 mps 753 mmHg 77%
    08:00 +11°C° 0.1 mm 7 mps 753 mmHg 74%
    09:00 +12°C° 0.1 mm 7 mps 753 mmHg 71%
    10:00 +14°C° 0.1 mm 6 mps 754 mmHg 68%
    11:00 +15°C° 0.4 mm 6 mps 754 mmHg 68%
    12:00 +15°C° 0.4 mm 6 mps 754 mmHg 67%
    13:00 +16°C° 0.4 mm 6 mps 754 mmHg 67%
    14:00 +16°C° 0.4 mm 6 mps 754 mmHg 66%
    15:00 +17°C° 0.4 mm 6 mps 754 mmHg 65%
    16:00 +17°C° 0.4 mm 5 mps 754 mmHg 65%
    17:00 +16°C° 0.2 mm 5 mps 754 mmHg 69%
    18:00 +15°C° 0.2 mm 5 mps 754 mmHg 72%
    19:00 +15°C° 0.2 mm 5 mps 754 mmHg 76%
    20:00 +14°C° 0 mm 5 mps 754 mmHg 79%
    21:00 +13°C° 0 mm 5 mps 754 mmHg 81%
    22:00 +11°C° 0 mm 6 mps 755 mmHg 83%
    23:00 +11°C° 0.1 mm 6 mps 754 mmHg 82%

    Day after tomorrow, 23 June, Saturday

    Time Temperature Precipitation Wind Pressure Humidity
    00:00 +11°C° 0.1 mm 6 mps 754 mmHg 82%
    01:00 +11°C° 0.1 mm 6 mps 754 mmHg 81%
    02:00 +11°C° 0 mm 6 mps 754 mmHg 79%
    03:00 +10°C° 0 mm 6 mps 754 mmHg 78%
    04:00 +10°C° 0 mm 6 mps 754 mmHg 76%
    05:00 +11°C° 0 mm 7 mps 754 mmHg 72%
    06:00 +12°C° 0 mm 7 mps 754 mmHg 69%
    07:00 +12°C° 0 mm 8 mps 755 mmHg 66%
    08:00 +13°C° 0 mm 8 mps 755 mmHg 63%
    09:00 +15°C° 0 mm 7 mps 755 mmHg 61%
    10:00 +16°C° 0 mm 7 mps 755 mmHg 58%
    11:00 +17°C° 0.1 mm 7 mps 755 mmHg 58%
    12:00 +17°C° 0.1 mm 7 mps 755 mmHg 57%
    13:00 +18°C° 0.1 mm 7 mps 755 mmHg 57%
    14:00 +18°C° 0.1 mm 7 mps 755 mmHg 58%
    15:00 +18°C° 0.1 mm 7 mps 755 mmHg 59%
    16:00 +17°C° 0.1 mm 7 mps 755 mmHg 60%
    17:00 +17°C° 0.1 mm 6 mps 756 mmHg 64%
    18:00 +16°C° 0.1 mm 6 mps 756 mmHg 69%
    19:00 +15°C° 0.1 mm 6 mps 756 mmHg 73%
    20:00 +14°C° 0 mm 5 mps 756 mmHg 78%
    21:00 +13°C° 0 mm 5 mps 756 mmHg 82%
    22:00 +12°C° 0 mm 4 mps 756 mmHg 87%
    23:00 +11°C° 0 mm 4 mps 756 mmHg 89%

    24 June, Sunday

    Time Temperature Precipitation Wind Pressure Humidity
    00:00 +11°C° 0 mm 4 mps 756 mmHg 92%
    01:00 +11°C° 0 mm 4 mps 756 mmHg 94%
    02:00 +11°C° 0 mm 4 mps 756 mmHg 94%
    03:00 +11°C° 0 mm 4 mps 756 mmHg 95%
    04:00 +11°C° 0 mm 4 mps 756 mmHg 95%
    05:00 +12°C° 0.1 mm 4 mps 756 mmHg 91%
    06:00 +13°C° 0.1 mm 4 mps 756 mmHg 87%
    07:00 +15°C° 0.1 mm 4 mps 757 mmHg 84%
    08:00 +15°C° 0.3 mm 4 mps 757 mmHg 79%
    09:00 +17°C° 0.3 mm 4 mps 757 mmHg 75%
    10:00 +18°C° 0.3 mm 4 mps 757 mmHg 70%
    11:00 +19°C° 0.4 mm 4 mps 757 mmHg 69%
    12:00 +19°C° 0.4 mm 4 mps 757 mmHg 67%
    13:00 +20°C° 0.4 mm 4 mps 757 mmHg 65%
    14:00 +20°C° 0.4 mm 4 mps 757 mmHg 65%
    15:00 +20°C° 0.4 mm 4 mps 758 mmHg 65%
    16:00 +20°C° 0.4 mm 3 mps 758 mmHg 65%
    17:00 +19°C° 0.2 mm 3 mps 758 mmHg 69%
    18:00 +18°C° 0.2 mm 2 mps 758 mmHg 72%
    19:00 +18°C° 0.2 mm 2 mps 758 mmHg 75%
    20:00 +16°C° 0 mm 2 mps 758 mmHg 79%
    21:00 +15°C° 0 mm 1 mps 759 mmHg 84%
    22:00 +13°C° 0 mm 1 mps 759 mmHg 88%
    23:00 +13°C° 0 mm 1 mps 759 mmHg 88%

    25 June, Monday

    Time Temperature Precipitation Wind Pressure Humidity
    00:00 +13°C° 0 mm 1 mps 759 mmHg 88%
    01:00 +12°C° 0 mm 1 mps 759 mmHg 88%
    02:00 +12°C° 0 mm 1 mps 759 mmHg 88%
    03:00 +12°C° 0 mm 1 mps 759 mmHg 88%
    04:00 +12°C° 0 mm 1 mps 759 mmHg 88%
    05:00 +13°C° 0 mm 2 mps 760 mmHg 83%
    06:00 +15°C° 0 mm 2 mps 760 mmHg 78%
    07:00 +17°C° 0 mm 2 mps 760 mmHg 72%
    08:00 +18°C° 0 mm 2 mps 760 mmHg 66%
    09:00 +20°C° 0 mm 2 mps 760 mmHg 60%
    10:00 +21°C° 0 mm 2 mps 761 mmHg 53%
    11:00 +23°C° 0 mm 2 mps 761 mmHg 51%
    12:00 +24°C° 0 mm 3 mps 761 mmHg 48%
    13:00 +24°C° 0 mm 3 mps 761 mmHg 46%
    14:00 +24°C° 0 mm 3 mps 761 mmHg 47%
    15:00 +24°C° 0 mm 3 mps 761 mmHg 47%
    16:00 +24°C° 0 mm 3 mps 761 mmHg 48%
    17:00 +22°C° 0 mm 3 mps 761 mmHg 53%
    18:00 +21°C° 0 mm 2 mps 761 mmHg 58%
    19:00 +20°C° 0 mm 2 mps 761 mmHg 63%
    20:00 +18°C° 0 mm 2 mps 761 mmHg 68%
    21:00 +17°C° 0 mm 2 mps 761 mmHg 73%
    22:00 +15°C° 0 mm 1 mps 762 mmHg 77%
    23:00 +15°C° 0 mm 1 mps 762 mmHg 76%

    26 June, Tuesday

    Time Temperature Precipitation Wind Pressure Humidity
    00:00 +15°C° 0 mm 1 mps 762 mmHg 76%
    01:00 +15°C° 0 mm 1 mps 762 mmHg 75%
    02:00 +15°C° 0 mm 1 mps 762 mmHg 75%
    03:00 +15°C° 0 mm 1 mps 762 mmHg 74%
    04:00 +15°C° 0 mm 1 mps 762 mmHg 74%
    05:00 +16°C° 0 mm 2 mps 762 mmHg 72%
    06:00 +18°C° 0 mm 2 mps 762 mmHg 70%
    07:00 +19°C° 0 mm 2 mps 762 mmHg 68%
    08:00 +20°C° 0.1 mm 3 mps 762 mmHg 65%
    09:00 +21°C° 0.1 mm 3 mps 762 mmHg 61%
    10:00 +22°C° 0.1 mm 3 mps 762 mmHg 58%
    11:00 +22°C° 0.3 mm 4 mps 762 mmHg 57%
    12:00 +23°C° 0.3 mm 4 mps 762 mmHg 57%
    13:00 +23°C° 0.3 mm 4 mps 762 mmHg 57%
    14:00 +23°C° 0.2 mm 4 mps 761 mmHg 57%
    15:00 +23°C° 0.2 mm 4 mps 761 mmHg 57%
    16:00 +23°C° 0.2 mm 4 mps 761 mmHg 57%
    17:00 +22°C° 0 mm 4 mps 761 mmHg 61%
    18:00 +21°C° 0 mm 3 mps 761 mmHg 65%
    19:00 +21°C° 0 mm 3 mps 761 mmHg 69%
    20:00 +19°C° 0 mm 3 mps 761 mmHg 73%
    21:00 +18°C° 0 mm 2 mps 762 mmHg 77%
    22:00 +17°C° 0 mm 2 mps 762 mmHg 82%
    23:00 +16°C° 0 mm 2 mps 762 mmHg 82%
    Show more